アトラス彗星

C/2024 G3 ( ATLAS )

English version
Home page
Updated on June 29, 2024

---------------------------------------------------------------------

・ プロフィール

発見日 2024年4月5日
発見光度 19.2等
発見者 Asteroid Terrestrial-Impact Last Alert System (ATLAS) search program

・ 写真集

・ 軌道要素

Epoch 2024 Mar. 31.0 TT = JDT 2460400.5
T 2025 Jan. 13.42225 TT                                 Rudenko
q   0.0934310            (2000.0)            P               Q
z  -0.0001218      Peri.  108.12733     -0.04061780     +0.81551651
 +/-0.0006011      Node   220.32350     +0.14777558     +0.57633250
e   1.0000114      Incl.  116.85649     +0.98818651     -0.05266555
>From 178 observations 2024 Apr. 5-June 13, mean residual 0".4.

・ 星図

・ 光度変化

        m1 = 9.0 + 5 logΔ + 10.0 log r

---------------------------------------------------------------------

軌道要素はM.P.E.C. 2024-M41に掲載されたものです。
星図はステラナビゲータ Ver.11 (アストロアーツ) で作成したものです。
光度グラフはComet for Windowsで作成したものです。

---------------------------------------------------------------------

Copyright(C) Seiichi Yoshida (comet@aerith.net). All rights reserved.